| time (UTC) | temp C | wind direction | speed KPH | gust KPH | rain 1hr cm | rain 24hr cm | rain mn cm | humidity % | barometer mb |
| 20260505151542 | 17 | 238 | 1.6 | 16.1 | 0.00 | 0.00 | 0.00 | 75 | 1009.6 |
| 20260505124522 | 15 | 202 | 1.6 | 8.0 | 0.00 | 0.00 | 0.00 | 76 | 1008.9 |
| 20260505123021 | 15 | 355 | 0.0 | 3.2 | 0.00 | 0.00 | 0.00 | 77 | 1008.8 |
| 20260505121520 | 15 | 168 | 0.0 | 4.8 | 0.00 | 0.00 | 0.00 | 77 | 1008.7 |
| 20260505120118 | 14 | 243 | 0.0 | 3.2 | 0.00 | 0.00 | 0.00 | 79 | 1008.8 |
| 20260505114517 | 14 | 278 | 0.0 | 3.2 | 0.00 | 0.00 | 0.00 | 80 | 1008.7 |
| 20260505113028 | 13 | 82 | 0.0 | 1.6 | 0.00 | 0.00 | 0.00 | 81 | 1008.4 |
| 20260505111535 | 13 | 76 | 0.0 | 3.2 | 0.00 | 0.00 | 0.00 | 81 | 1008.2 |
| 20260505101523 | 13 | 269 | 0.0 | 0.0 | 0.00 | 0.00 | 0.00 | 80 | 1008.4 |
| 20260505100012 | 13 | 87 | 0.0 | 0.0 | 0.00 | 0.00 | 0.00 | 81 | 1008.1 |
| 20260505094511 | 13 | 109 | 0.0 | 0.0 | 0.00 | 0.00 | 0.00 | 81 | 1008.3 |
| 20260505093010 | 13 | 109 | 0.0 | 0.0 | 0.00 | 0.00 | 0.00 | 80 | 1008.4 |
| 20260505091507 | 13 | 109 | 0.0 | 0.0 | 0.00 | 0.00 | 0.00 | 79 | 1008.4 |
| 20260505090006 | 14 | 109 | 0.0 | 0.0 | 0.00 | 0.00 | 0.00 | 77 | 1008.2 |
| 20260505084507 | 15 | 42 | 0.0 | 1.6 | 0.00 | 0.00 | 0.00 | 76 | 1008.3 |
| 20260505083001 | 15 | 294 | 0.0 | 0.0 | 0.00 | 0.00 | 0.00 | 75 | 1008.3 |
| 20260505081600 | 15 | 303 | 0.0 | 0.0 | 0.00 | 0.00 | 0.00 | 74 | 1008.1 |
| 20260505080058 | 15 | 306 | 0.0 | 0.0 | 0.00 | 0.00 | 0.00 | 73 | 1008.1 |
| 20260505074555 | 16 | 313 | 0.0 | 0.0 | 0.00 | 0.00 | 0.00 | 71 | 1007.9 |
| 20260505073055 | 16 | 265 | 0.0 | 3.2 | 0.00 | 0.00 | 0.00 | 70 | 1008.0 |
| 20260505071550 | 16 | 272 | 0.0 | 4.8 | 0.00 | 0.00 | 0.00 | 69 | 1007.9 |
| 20260505064555 | 16 | 284 | 0.0 | 6.4 | 0.00 | 0.00 | 0.00 | 69 | 1008.0 |
| 20260505063047 | 16 | 245 | 0.0 | 6.4 | 0.00 | 0.00 | 0.00 | 69 | 1008.0 |
| 20260505061609 | 16 | 287 | 0.0 | 6.4 | 0.00 | 0.00 | 0.00 | 68 | 1008.2 |
| 20260505060050 | 17 | 195 | 0.0 | 6.4 | 0.00 | 0.00 | 0.00 | 68 | 1008.4 |
| 20260505054546 | 17 | 262 | 0.0 | 16.1 | 0.00 | 0.00 | 0.00 | 67 | 1008.4 |
| 20260505053039 | 17 | 248 | 0.0 | 8.0 | 0.00 | 0.00 | 0.00 | 67 | 1008.3 |
| 20260505051538 | 17 | 283 | 0.0 | 4.8 | 0.00 | 0.00 | 0.00 | 66 | 1008.4 |
| 20260505041534 | 17 | 286 | 0.0 | 1.6 | 0.00 | 0.00 | 0.00 | 64 | 1008.4 |
| 20260505040041 | 18 | 274 | 0.0 | 3.2 | 0.00 | 0.00 | 0.00 | 63 | 1008.3 |
| 20260505034540 | 18 | 306 | 0.0 | 3.2 | 0.00 | 0.00 | 0.00 | 61 | 1008.4 |
| 20260505033033 | 19 | 293 | 0.0 | 11.3 | 0.00 | 0.00 | 0.00 | 60 | 1008.2 |
| 20260505031540 | 19 | 217 | 0.0 | 6.4 | 0.00 | 0.00 | 0.00 | 59 | 1008.1 |
| 20260505030032 | 20 | 282 | 0.0 | 4.8 | 0.00 | 0.00 | 0.00 | 58 | 1008.0 |
| 20260505024532 | 20 | 318 | 0.0 | 8.0 | 0.00 | 0.00 | 0.00 | 57 | 1007.9 |
| 20260505023030 | 20 | 230 | 0.0 | 6.4 | 0.00 | 0.00 | 0.00 | 58 | 1007.7 |
| 20260505021533 | 20 | 313 | 0.0 | 6.4 | 0.00 | 0.00 | 0.00 | 58 | 1007.5 |
| 20260505020037 | 20 | 265 | 0.0 | 6.4 | 0.00 | 0.00 | 0.00 | 58 | 1007.3 |
| 20260505014531 | 20 | 284 | 0.0 | 3.2 | 0.00 | 0.00 | 0.00 | 56 | 1007.2 |
| 20260505013028 | 21 | 281 | 0.0 | 4.8 | 0.00 | 0.00 | 0.00 | 55 | 1007.1 |
| 20260505011529 | 21 | 285 | 0.0 | 4.8 | 0.00 | 0.00 | 0.00 | 53 | 1007.0 |
| 20260505010027 | 21 | 291 | 0.0 | 8.0 | 0.00 | 0.00 | 0.00 | 50 | 1007.1 |
| 20260505004525 | 22 | 317 | 1.6 | 12.9 | 0.00 | 0.00 | 0.00 | 49 | 1007.1 |
| 20260505003026 | 22 | 243 | 0.0 | 17.7 | 0.00 | 0.00 | 0.00 | 49 | 1007.2 |
| 20260505001524 | 23 | 307 | 3.2 | 11.3 | 0.00 | 0.00 | 0.00 | 49 | 1007.2 |
| 20260505000038 | 23 | 244 | 0.0 | 9.7 | 0.00 | 0.00 | 0.00 | 48 | 1007.1 |
| 20260504234524 | 23 | 287 | 3.2 | 14.5 | 0.00 | 0.00 | 0.00 | 47 | 1007.3 |
| 20260504233018 | 24 | 251 | 3.2 | 14.5 | 0.00 | 0.00 | 0.00 | 45 | 1007.8 |
| 20260504231517 | 25 | 279 | 4.8 | 14.5 | 0.00 | 0.00 | 0.00 | 45 | 1007.9 |
| 20260504230017 | 25 | 338 | 4.8 | 17.7 | 0.00 | 0.00 | 0.00 | 43 | 1007.9 |
| 20260504224518 | 25 | 220 | 3.2 | 19.3 | 0.00 | 0.00 | 0.00 | 44 | 1008.0 |
| 20260504223015 | 25 | 237 | 6.4 | 16.1 | 0.00 | 0.00 | 0.00 | 41 | 1008.1 |
| 20260504221520 | 26 | 293 | 8.0 | 25.7 | 0.00 | 0.00 | 0.00 | 42 | 1008.2 |
| 20260504220029 | 26 | 329 | 8.0 | 24.1 | 0.00 | 0.00 | 0.00 | 43 | 1008.1 |
| 20260504214512 | 26 | 142 | 9.7 | 19.3 | 0.00 | 0.00 | 0.00 | 43 | 1008.0 |
| 20260504213014 | 26 | 227 | 6.4 | 24.1 | 0.00 | 0.00 | 0.00 | 43 | 1008.1 |
| 20260504211610 | 26 | 326 | 8.0 | 29.0 | 0.00 | 0.00 | 0.00 | 42 | 1007.8 |
| 20260504210010 | 26 | 200 | 8.0 | 20.9 | 0.00 | 0.00 | 0.00 | 41 | 1007.9 |
| 20260504204508 | 26 | 25 | 4.8 | 20.9 | 0.00 | 0.00 | 0.00 | 42 | 1007.9 |
| 20260504203006 | 26 | 296 | 9.7 | 25.7 | 0.00 | 0.00 | 0.00 | 42 | 1008.0 |
| 20260504201505 | 26 | 216 | 8.0 | 27.4 | 0.00 | 0.00 | 0.00 | 43 | 1008.1 |
| 20260504200003 | 26 | 173 | 6.4 | 19.3 | 0.00 | 0.00 | 0.00 | 44 | 1008.4 |
| 20260504194600 | 26 | 5 | 6.4 | 16.1 | 0.00 | 0.00 | 0.00 | 45 | 1008.6 |
| 20260504193113 | 26 | 284 | 6.4 | 17.7 | 0.00 | 0.00 | 0.00 | 47 | 1008.8 |
| 20260504191556 | 26 | 5 | 4.8 | 16.1 | 0.00 | 0.00 | 0.00 | 47 | 1008.9 |
| 20260504190105 | 26 | 320 | 6.4 | 22.5 | 0.00 | 0.00 | 0.00 | 48 | 1009.2 |
| 20260504184551 | 25 | 342 | 4.8 | 19.3 | 0.00 | 0.00 | 0.00 | 48 | 1009.4 |
| 20260504183058 | 25 | 103 | 8.0 | 19.3 | 0.00 | 0.00 | 0.00 | 48 | 1009.6 |
| 20260504181547 | 25 | 219 | 8.0 | 20.9 | 0.00 | 0.00 | 0.00 | 49 | 1009.8 |
| 20260504180117 | 25 | 342 | 4.8 | 16.1 | 0.00 | 0.00 | 0.00 | 52 | 1009.9 |
| 20260504174545 | 25 | 277 | 4.8 | 19.3 | 0.00 | 0.00 | 0.00 | 52 | 1010.1 |
| 20260504173039 | 24 | 235 | 6.4 | 20.9 | 0.00 | 0.00 | 0.00 | 53 | 1010.2 |
| 20260504171537 | 24 | 330 | 4.8 | 19.3 | 0.00 | 0.00 | 0.00 | 52 | 1010.2 |